UAE57X EDDH-OMDB

Flight info

Callsign UAE57X
Flight time 6h 49m
Altitude 33000
Route AMLUH2G AMLUH M852 DENIX DCT ZUCKA DCT ARMUT DCT LAMSI DCT LIDSI DCT RADLY DCT PODET DCT TAZ DCT PETAK DCT DIMIS DCT SALUN/N0477F350 N705 MMA P751 DASUM Y234 FYM M872 BDB Y214 RAPMA DCT KUVSO DCT KATIT DCT PEKEM M628 RIGIL G783 ASPED Q308 KIPOK Q568 IMPED
Aircraft B77W/H-SDE1E2E3FGHIJ2J3J4J5M1RWXY/LB1D1

Departure

Time 2026-04-23 10:17
Airport Hamburg Helmut Schmidt Airport (EDDH)

Arrival

Time 2026-04-23 17:07
Airport Dubai International Airport (OMDB)
Time Latitude Longitude Altitude Speed Heading
2026-04-23 09:37 53.63011 10.00342 53 ft 0 kts 123°
2026-04-23 10:10 53.63012 10.00341 53 ft 1 kts 123°
2026-04-23 10:10 53.63024 10.00308 52 ft 2 kts 123°
2026-04-23 10:11 53.63037 10.00277 53 ft 4 kts 131°
2026-04-23 10:11 53.63057 10.00247 53 ft 4 kts 149°
2026-04-23 10:11 53.63081 10.00230 53 ft 4 kts 173°
2026-04-23 10:11 53.63104 10.00227 53 ft 4 kts 176°
2026-04-23 10:12 53.63118 10.00225 53 ft 0 kts 176°
2026-04-23 10:15 53.63111 10.00226 49 ft 5 kts 176°
2026-04-23 10:15 53.63065 10.00215 51 ft 7 kts 202°
2026-04-23 10:15 53.63022 10.00172 53 ft 7 kts 212°
2026-04-23 10:15 53.62979 10.00127 48 ft 8 kts 212°
2026-04-23 10:16 53.62924 10.00069 49 ft 11 kts 210°
2026-04-23 10:16 53.62859 9.99994 52 ft 12 kts 234°
2026-04-23 10:16 53.62816 9.99868 50 ft 10 kts 245°
2026-04-23 10:16 53.62838 9.99770 50 ft 10 kts 324°
2026-04-23 10:17 53.62909 9.99708 48 ft 19 kts 335°
2026-04-23 10:17 53.63287 9.99381 47 ft 109 kts 333°
2026-04-23 10:17 53.64242 9.98536 83 ft 197 kts 329°
2026-04-23 10:17 53.65454 9.97360 1146 ft 201 kts 326°
2026-04-23 10:18 53.66656 9.96172 1883 ft 205 kts 330°
2026-04-23 10:18 53.67969 9.95146 2394 ft 207 kts 334°
2026-04-23 10:18 53.69350 9.94479 2872 ft 214 kts 355°
2026-04-23 10:18 53.70885 9.94746 3146 ft 229 kts
2026-04-23 10:19 53.72505 9.95306 3424 ft 245 kts 16°
2026-04-23 10:19 53.73959 9.96906 3845 ft 260 kts 50°
2026-04-23 10:19 53.74627 9.99753 4439 ft 269 kts 84°
2026-04-23 10:19 53.74426 10.02906 4964 ft 275 kts 105°
2026-04-23 10:20 53.73567 10.05836 5452 ft 281 kts 119°
2026-04-23 10:20 53.72556 10.08693 6049 ft 285 kts 118°
2026-04-23 10:20 53.71559 10.11588 6699 ft 286 kts 117°
2026-04-23 10:20 53.70564 10.14526 7309 ft 290 kts 117°
2026-04-23 10:21 53.69563 10.17501 7890 ft 293 kts 117°
2026-04-23 10:21 53.68293 10.20201 8313 ft 301 kts 143°
2026-04-23 10:21 53.66375 10.21638 8777 ft 304 kts 166°
2026-04-23 10:21 53.64302 10.22549 9252 ft 311 kts 165°
2026-04-23 10:22 53.62206 10.23486 9855 ft 312 kts 165°
2026-04-23 10:22 53.60102 10.24435 10400 ft 316 kts 165°
2026-04-23 10:22 53.57943 10.25418 10736 ft 330 kts 165°
2026-04-23 10:22 53.55661 10.26455 10897 ft 350 kts 165°
2026-04-23 10:23 53.53244 10.27555 11068 ft 370 kts 165°
2026-04-23 10:23 53.50693 10.28724 11249 ft 389 kts 165°
2026-04-23 10:23 53.48041 10.29945 11702 ft 401 kts 165°
2026-04-23 10:23 53.45328 10.31192 12383 ft 407 kts 165°
2026-04-23 10:24 53.42624 10.32428 13198 ft 409 kts 165°
2026-04-23 10:24 53.39865 10.33675 14005 ft 413 kts 164°
2026-04-23 10:24 53.37073 10.34926 14727 ft 418 kts 164°
2026-04-23 10:24 53.34251 10.36188 15459 ft 422 kts 164°
2026-04-23 10:25 53.31407 10.37456 16198 ft 425 kts 164°
2026-04-23 10:25 53.28536 10.38738 16913 ft 428 kts 163°
2026-04-23 10:25 53.25641 10.40032 17589 ft 433 kts 163°
2026-04-23 10:25 53.22715 10.41336 18246 ft 437 kts 163°
2026-04-23 10:26 53.19774 10.42647 18926 ft 440 kts 163°
2026-04-23 10:26 53.16802 10.43967 19582 ft 443 kts 163°
2026-04-23 10:26 53.13817 10.45293 20231 ft 446 kts 163°
2026-04-23 10:26 53.10777 10.46439 20826 ft 451 kts 167°
2026-04-23 10:27 53.07673 10.47395 21407 ft 455 kts 167°
2026-04-23 10:27 53.04553 10.48346 21997 ft 458 kts 167°
2026-04-23 10:27 53.01411 10.49304 22553 ft 461 kts 167°
2026-04-23 10:27 52.98243 10.50275 23077 ft 465 kts 167°
2026-04-23 10:28 52.95052 10.51257 23615 ft 468 kts 167°
2026-04-23 10:28 52.91843 10.52248 24138 ft 471 kts 166°
2026-04-23 10:28 52.88615 10.53248 24626 ft 474 kts 166°
2026-04-23 10:28 52.85356 10.54255 25092 ft 477 kts 166°
2026-04-23 10:29 52.82081 10.55265 25563 ft 480 kts 166°
2026-04-23 10:29 52.78788 10.56279 26000 ft 484 kts 166°
2026-04-23 10:29 52.75469 10.57300 26437 ft 486 kts 166°
2026-04-23 10:29 52.72138 10.58325 26865 ft 489 kts 166°
2026-04-23 10:30 52.68781 10.59356 27238 ft 492 kts 166°
2026-04-23 10:30 52.65403 10.60395 27606 ft 495 kts 166°
2026-04-23 10:30 52.62004 10.61433 27982 ft 498 kts 166°
2026-04-23 10:30 52.58591 10.62471 28365 ft 500 kts 166°
2026-04-23 10:31 52.55160 10.63513 28722 ft 503 kts 166°
2026-04-23 10:31 52.51712 10.64561 29055 ft 505 kts 166°
2026-04-23 10:31 52.48253 10.65613 29376 ft 507 kts 166°
2026-04-23 10:31 52.44783 10.66664 29714 ft 508 kts 166°
2026-04-23 10:32 52.41309 10.67714 30113 ft 507 kts 166°
2026-04-23 10:32 52.37846 10.68761 30561 ft 505 kts 166°
2026-04-23 10:32 52.34402 10.69803 31022 ft 503 kts 165°
2026-04-23 10:32 52.30964 10.70837 31426 ft 502 kts 165°
2026-04-23 10:33 52.27540 10.71864 31830 ft 500 kts 165°
2026-04-23 10:33 52.24126 10.72887 32227 ft 498 kts 165°
2026-04-23 10:33 52.20722 10.73908 32587 ft 497 kts 165°
2026-04-23 10:33 52.17367 10.74914 32930 ft 496 kts 165°
2026-04-23 10:34 52.13933 10.75943 33264 ft 495 kts 165°
2026-04-23 10:34 52.10532 10.76960 33301 ft 499 kts 165°
2026-04-23 10:34 52.03713 10.78987 33335 ft 495 kts 165°
2026-04-23 10:35 51.97016 10.80972 33339 ft 491 kts 165°
2026-04-23 10:35 51.90304 10.82962 33335 ft 489 kts 165°
2026-04-23 10:36 51.83602 10.84943 33332 ft 490 kts 165°
2026-04-23 10:36 51.76878 10.86921 33334 ft 492 kts 165°
2026-04-23 10:37 51.70150 10.88946 33331 ft 491 kts 161°
2026-04-23 10:37 51.63721 10.92347 33335 ft 483 kts 150°
2026-04-23 10:38 51.57660 10.97053 33333 ft 483 kts 149°
2026-04-23 10:38 51.51590 11.01733 33328 ft 485 kts 149°
2026-04-23 10:39 51.45494 11.06378 33324 ft 485 kts 149°
2026-04-23 10:39 51.39378 11.11002 33327 ft 486 kts 149°
2026-04-23 10:40 51.33256 11.15610 33313 ft 486 kts 149°
2026-04-23 10:40 51.27143 11.20208 33322 ft 486 kts 149°
2026-04-23 10:41 51.21020 11.24800 33322 ft 486 kts 149°
2026-04-23 10:41 51.14943 11.29341 33320 ft 486 kts 149°
2026-04-23 10:42 51.08819 11.33902 33323 ft 486 kts 149°
2026-04-23 10:42 51.02695 11.38453 33324 ft 486 kts 149°
2026-04-23 10:43 50.96566 11.42997 33324 ft 486 kts 149°
2026-04-23 10:43 50.91428 11.46795 33315 ft 486 kts 149°
2026-04-23 10:44 50.85288 11.51313 33314 ft 486 kts 149°
2026-04-23 10:44 50.79152 11.55819 33314 ft 486 kts 149°
2026-04-23 10:45 50.73019 11.60316 33309 ft 486 kts 149°
2026-04-23 10:45 50.66897 11.64792 33324 ft 486 kts 149°
2026-04-23 10:46 50.60740 11.69276 33311 ft 487 kts 149°
2026-04-23 10:46 50.54580 11.73747 33327 ft 487 kts 149°
2026-04-23 10:47 50.48416 11.78207 33326 ft 488 kts 149°
2026-04-23 10:47 50.42294 11.82633 33315 ft 488 kts 149°
2026-04-23 10:48 50.36125 11.87071 33321 ft 488 kts 149°
2026-04-23 10:48 50.29959 11.91501 33327 ft 488 kts 149°
2026-04-23 10:49 50.23783 11.95922 33322 ft 488 kts 149°
2026-04-23 10:49 50.17607 12.00331 33319 ft 489 kts 149°
2026-04-23 10:50 50.11420 12.04736 33319 ft 489 kts 150°
2026-04-23 10:50 50.05237 12.09122 33306 ft 488 kts 150°
2026-04-23 10:51 49.99050 12.13501 33301 ft 488 kts 150°
2026-04-23 10:51 49.92863 12.17871 33304 ft 489 kts 150°
2026-04-23 10:52 49.86669 12.22229 33303 ft 489 kts 150°
2026-04-23 10:52 49.80473 12.26581 33306 ft 489 kts 150°
2026-04-23 10:53 49.74294 12.30965 33299 ft 487 kts 147°
2026-04-23 10:53 49.68648 12.36515 33304 ft 477 kts 135°
2026-04-23 10:54 49.63465 12.42896 33302 ft 477 kts 136°
2026-04-23 10:54 49.58252 12.49233 33307 ft 478 kts 136°
2026-04-23 10:55 49.53043 12.55495 33306 ft 479 kts 136°
2026-04-23 10:55 49.47780 12.61793 33304 ft 479 kts 136°
2026-04-23 10:56 49.42512 12.68082 33303 ft 480 kts 136°
2026-04-23 10:56 49.37229 12.74369 33303 ft 481 kts 136°
2026-04-23 10:57 49.31940 12.80641 33304 ft 481 kts 136°
2026-04-23 10:57 49.26651 12.86908 33302 ft 481 kts 136°
2026-04-23 10:58 49.21354 12.93160 33306 ft 481 kts 136°
2026-04-23 10:58 49.16057 12.99396 33297 ft 481 kts 136°
2026-04-23 10:59 49.10748 13.05632 33296 ft 481 kts 136°
2026-04-23 10:59 49.05439 13.11846 33296 ft 481 kts 136°
2026-04-23 11:00 49.00133 13.18043 33302 ft 481 kts 136°
2026-04-23 11:00 48.94813 13.24235 33294 ft 481 kts 136°
2026-04-23 11:01 48.89489 13.30413 33293 ft 481 kts 136°
2026-04-23 11:01 48.84164 13.36590 33299 ft 482 kts 137°
2026-04-23 11:02 48.78819 13.42757 33293 ft 483 kts 137°
2026-04-23 11:02 48.73469 13.48923 33297 ft 483 kts 137°
2026-04-23 11:03 48.68112 13.55074 33293 ft 484 kts 137°
2026-04-23 11:03 48.62417 13.60605 33288 ft 492 kts 148°
2026-04-23 11:04 48.56218 13.65049 33299 ft 493 kts 149°
2026-04-23 11:04 48.50028 13.69511 33300 ft 493 kts 148°
2026-04-23 11:05 48.43890 13.73992 33287 ft 494 kts 148°
2026-04-23 11:05 48.37709 13.78506 33294 ft 494 kts 148°
2026-04-23 11:06 48.28432 13.85255 33291 ft 494 kts 148°
2026-04-23 11:07 48.22248 13.89753 33297 ft 493 kts 147°
2026-04-23 11:07 48.16303 13.94775 33302 ft 490 kts 144°
2026-04-23 11:08 48.10407 13.99884 33293 ft 490 kts 144°
2026-04-23 11:08 48.04497 14.04974 33292 ft 490 kts 144°
2026-04-23 11:09 47.98580 14.10034 33297 ft 490 kts 144°
2026-04-23 11:09 47.92653 14.15081 33292 ft 490 kts 144°
2026-04-23 11:10 47.86728 14.20113 33287 ft 490 kts 144°
2026-04-23 11:10 47.80794 14.25137 33289 ft 491 kts 144°
2026-04-23 11:11 47.74850 14.30156 33276 ft 492 kts 144°
2026-04-23 11:11 47.68903 14.35169 33245 ft 491 kts 144°
2026-04-23 11:12 47.62966 14.40161 33240 ft 490 kts 144°
2026-04-23 11:12 47.57035 14.45132 33232 ft 490 kts 144°
2026-04-23 11:13 47.51104 14.50091 33226 ft 489 kts 145°
2026-04-23 11:13 47.45190 14.55020 33228 ft 488 kts 145°
2026-04-23 11:14 47.39274 14.59948 33210 ft 488 kts 145°
2026-04-23 11:14 47.33369 14.64844 33228 ft 487 kts 145°
2026-04-23 11:15 47.27487 14.69707 33205 ft 488 kts 145°
2026-04-23 11:15 47.21552 14.74604 33210 ft 489 kts 145°
2026-04-23 11:16 47.15619 14.79492 33218 ft 490 kts 145°
2026-04-23 11:16 47.09667 14.84379 33221 ft 490 kts 145°
2026-04-23 11:17 47.03713 14.89255 33213 ft 490 kts 145°
2026-04-23 11:17 46.97756 14.94120 33195 ft 490 kts 145°
2026-04-23 11:18 46.91809 14.98962 33199 ft 488 kts 145°
2026-04-23 11:18 46.85874 15.03786 33195 ft 488 kts 145°
2026-04-23 11:19 46.79949 15.08590 33192 ft 487 kts 145°
2026-04-23 11:19 46.74014 15.13389 33195 ft 487 kts 145°
2026-04-23 11:20 46.68093 15.18168 33190 ft 486 kts 145°
2026-04-23 11:20 46.62188 15.22978 33186 ft 485 kts 144°
2026-04-23 11:21 46.56440 15.28083 33195 ft 484 kts 142°
2026-04-23 11:21 46.50715 15.33235 33192 ft 484 kts 143°
2026-04-23 11:22 46.44959 15.38343 33182 ft 485 kts 143°
2026-04-23 11:22 46.39190 15.43407 33178 ft 485 kts 143°
2026-04-23 11:23 46.33421 15.48457 33190 ft 485 kts 143°
2026-04-23 11:23 46.27642 15.53511 33193 ft 485 kts 143°
2026-04-23 11:24 46.21868 15.58550 33185 ft 485 kts 143°
2026-04-23 11:24 46.16098 15.63572 33201 ft 484 kts 143°
2026-04-23 11:25 46.10348 15.68618 33202 ft 484 kts 143°
2026-04-23 11:25 46.04645 15.73642 33206 ft 484 kts 143°
2026-04-23 11:26 45.98899 15.78688 33202 ft 483 kts 143°
2026-04-23 11:26 45.93156 15.83709 33199 ft 483 kts 143°
2026-04-23 11:27 45.87411 15.88722 33200 ft 483 kts 143°
2026-04-23 11:27 45.81666 15.93722 33196 ft 483 kts 143°
2026-04-23 11:28 45.75917 15.98716 33200 ft 483 kts 143°
2026-04-23 11:28 45.70168 16.03696 33182 ft 483 kts 143°
2026-04-23 11:29 45.64408 16.08672 33188 ft 483 kts 143°
2026-04-23 11:29 45.58652 16.13629 33182 ft 483 kts 143°
2026-04-23 11:30 45.53875 16.17739 33186 ft 482 kts 143°
2026-04-23 11:30 45.48129 16.22673 33190 ft 481 kts 143°
2026-04-23 11:31 45.42393 16.27577 33188 ft 480 kts 143°
2026-04-23 11:31 45.36671 16.32465 33188 ft 480 kts 143°
2026-04-23 11:32 45.30949 16.37340 33178 ft 479 kts 143°
2026-04-23 11:32 45.25241 16.42188 33182 ft 477 kts 143°
2026-04-23 11:33 45.19554 16.47014 33165 ft 476 kts 143°
2026-04-23 11:33 45.13876 16.51818 33185 ft 474 kts 143°
2026-04-23 11:34 45.08215 16.56594 33185 ft 473 kts 143°
2026-04-23 11:34 45.02558 16.61353 33188 ft 473 kts 143°
2026-04-23 11:35 44.96905 16.66104 33189 ft 473 kts 143°
2026-04-23 11:35 44.91262 16.70834 33177 ft 472 kts 143°
2026-04-23 11:36 44.85624 16.75546 33184 ft 471 kts 143°
2026-04-23 11:36 44.79995 16.80248 33188 ft 470 kts 143°
2026-04-23 11:37 44.74395 16.84908 33194 ft 471 kts 143°
2026-04-23 11:37 44.68750 16.89595 33184 ft 471 kts 143°
2026-04-23 11:38 44.63103 16.94272 33180 ft 471 kts 143°
2026-04-23 11:38 44.57456 16.98935 33178 ft 471 kts 143°
2026-04-23 11:39 44.51814 17.03589 33170 ft 470 kts 143°
2026-04-23 11:39 44.46181 17.08222 33176 ft 469 kts 143°
2026-04-23 11:40 44.40557 17.12842 33179 ft 468 kts 143°
2026-04-23 11:40 44.34945 17.17443 33173 ft 468 kts 143°
2026-04-23 11:41 44.29328 17.22036 33170 ft 468 kts 143°
2026-04-23 11:41 44.23709 17.26616 33163 ft 468 kts 143°
2026-04-23 11:42 44.18086 17.31188 33149 ft 467 kts 143°
2026-04-23 11:42 44.12473 17.35745 33145 ft 467 kts 143°
2026-04-23 11:43 44.06868 17.40284 33134 ft 465 kts 143°
2026-04-23 11:43 44.01276 17.44805 33147 ft 465 kts 143°
2026-04-23 11:44 43.95732 17.49285 33132 ft 464 kts 143°
2026-04-23 11:44 43.90140 17.53780 33133 ft 464 kts 143°
2026-04-23 11:45 43.84547 17.58266 33136 ft 465 kts 143°
2026-04-23 11:45 43.78951 17.62749 33126 ft 465 kts 143°
2026-04-23 11:46 43.73345 17.67236 33127 ft 466 kts 143°
2026-04-23 11:46 43.67724 17.71721 33125 ft 467 kts 143°
2026-04-23 11:47 43.62099 17.76195 33115 ft 467 kts 143°
2026-04-23 11:47 43.56473 17.80676 33118 ft 467 kts 143°
2026-04-23 11:48 43.50827 17.85148 33122 ft 469 kts 144°
2026-04-23 11:48 43.45157 17.89621 33116 ft 470 kts 144°
2026-04-23 11:49 43.39488 17.94090 33094 ft 469 kts 143°
2026-04-23 11:49 43.33828 17.98550 33104 ft 469 kts 144°
2026-04-23 11:50 43.28167 18.02999 33095 ft 469 kts 144°
2026-04-23 11:50 43.22501 18.07441 33101 ft 470 kts 144°
2026-04-23 11:51 43.16815 18.11891 33110 ft 472 kts 144°
2026-04-23 11:51 43.11100 18.16354 33102 ft 474 kts 145°
2026-04-23 11:52 43.05350 18.20831 33096 ft 477 kts 145°
2026-04-23 11:52 42.99573 18.25320 33097 ft 478 kts 146°
2026-04-23 11:53 42.93815 18.29788 33090 ft 481 kts 146°
2026-04-23 11:53 42.87987 18.34294 33090 ft 482 kts 146°
2026-04-23 11:54 42.82142 18.38805 33082 ft 484 kts 146°
2026-04-23 11:54 42.76288 18.43316 33076 ft 484 kts 146°
2026-04-23 11:55 42.70435 18.47818 33076 ft 483 kts 147°
2026-04-23 11:55 42.64576 18.52311 33070 ft 483 kts 147°
2026-04-23 11:56 42.58721 18.56792 33075 ft 483 kts 147°
2026-04-23 11:56 42.52860 18.61266 33076 ft 484 kts 147°
2026-04-23 11:57 42.46992 18.65740 33079 ft 484 kts 147°
2026-04-23 11:57 42.41123 18.70207 33070 ft 484 kts 147°
2026-04-23 11:58 42.35244 18.74666 33080 ft 485 kts 147°
2026-04-23 11:58 42.29359 18.79131 33078 ft 485 kts 146°
2026-04-23 11:59 42.23851 18.84307 33078 ft 481 kts 139°
2026-04-23 11:59 42.18542 18.89822 33075 ft 482 kts 139°
2026-04-23 12:00 42.13212 18.95297 33076 ft 482 kts 139°
2026-04-23 12:00 42.07858 19.00744 33073 ft 482 kts 140°
2026-04-23 12:01 42.02504 19.06175 33072 ft 482 kts 140°
2026-04-23 12:01 41.97149 19.11597 33075 ft 482 kts 140°
2026-04-23 12:02 41.91774 19.17029 33057 ft 486 kts 141°
2026-04-23 12:02 41.86383 19.22465 33076 ft 490 kts 141°
2026-04-23 12:03 41.80907 19.27979 33069 ft 495 kts 141°
2026-04-23 12:03 41.75215 19.33311 33052 ft 498 kts 148°
2026-04-23 12:04 41.69246 19.37875 33056 ft 497 kts 149°
2026-04-23 12:04 41.63244 19.42438 33040 ft 495 kts 148°
2026-04-23 12:05 41.57298 19.46992 33041 ft 487 kts 146°
2026-04-23 12:05 41.51497 19.51449 33033 ft 479 kts 146°
2026-04-23 12:06 41.45715 19.55897 33028 ft 481 kts 147°
2026-04-23 12:06 41.36984 19.62591 33026 ft 484 kts 147°
2026-04-23 12:07 41.31128 19.67061 33027 ft 486 kts 147°
2026-04-23 12:07 41.25246 19.71542 33018 ft 488 kts 147°
2026-04-23 12:08 41.19345 19.76027 33021 ft 488 kts 148°
2026-04-23 12:08 41.13446 19.80505 33025 ft 489 kts 148°
2026-04-23 12:09 41.07531 19.84984 33026 ft 490 kts 148°
2026-04-23 12:09 41.01614 19.89459 33027 ft 490 kts 149°
2026-04-23 12:10 40.95688 19.93927 33028 ft 491 kts 149°
2026-04-23 12:10 40.89787 19.98366 33028 ft 491 kts 150°
2026-04-23 12:11 40.83836 20.02833 33030 ft 493 kts 150°
2026-04-23 12:11 40.77870 20.07302 33034 ft 494 kts 151°
2026-04-23 12:12 40.71877 20.11785 33022 ft 496 kts 151°
2026-04-23 12:12 40.65859 20.16275 33016 ft 498 kts 151°
2026-04-23 12:13 40.59823 20.20767 33017 ft 498 kts 152°
2026-04-23 12:13 40.53780 20.25259 33015 ft 499 kts 152°
2026-04-23 12:14 40.47745 20.29743 33022 ft 498 kts 152°
2026-04-23 12:14 40.41702 20.34212 33011 ft 498 kts 152°
2026-04-23 12:15 40.35658 20.38673 33007 ft 498 kts 153°
2026-04-23 12:15 40.29621 20.43123 33008 ft 498 kts 153°
2026-04-23 12:16 40.23579 20.47570 33002 ft 498 kts 153°
2026-04-23 12:16 40.17533 20.52006 33003 ft 499 kts 153°
2026-04-23 12:17 40.11476 20.56445 33002 ft 499 kts 153°
2026-04-23 12:17 40.05412 20.60859 33001 ft 499 kts 153°
2026-04-23 12:18 40.00332 20.64411 32997 ft 498 kts 154°
2026-04-23 12:18 39.93205 20.69310 32997 ft 498 kts 156°
2026-04-23 12:19 39.87077 20.73534 32986 ft 498 kts 156°
2026-04-23 12:19 39.81938 20.77076 33000 ft 499 kts 156°
2026-04-23 12:20 39.75796 20.81312 32997 ft 500 kts 156°
2026-04-23 12:20 39.69680 20.85527 32981 ft 502 kts 156°
2026-04-23 12:21 39.63508 20.89768 32997 ft 501 kts 156°
2026-04-23 12:21 39.57344 20.93998 32983 ft 501 kts 156°
2026-04-23 12:22 39.51177 20.98216 32981 ft 501 kts 157°
2026-04-23 12:22 39.45020 21.02420 32978 ft 499 kts 157°
2026-04-23 12:23 39.38877 21.06606 32997 ft 499 kts 157°
2026-04-23 12:23 39.32728 21.10784 32999 ft 499 kts 157°
2026-04-23 12:24 39.26573 21.14963 32998 ft 500 kts 157°
2026-04-23 12:24 39.20412 21.19140 32997 ft 500 kts 158°
2026-04-23 12:25 39.14247 21.23308 32983 ft 500 kts 158°
2026-04-23 12:25 39.08085 21.27469 32974 ft 500 kts 158°
2026-04-23 12:26 39.01920 21.31622 32976 ft 500 kts 158°
2026-04-23 12:26 38.95750 21.35764 32970 ft 501 kts 158°
2026-04-23 12:27 38.89578 21.39903 32986 ft 500 kts 158°
2026-04-23 12:27 38.83424 21.44025 32981 ft 498 kts 159°
2026-04-23 12:28 38.77271 21.48134 32987 ft 498 kts 159°
2026-04-23 12:28 38.71125 21.52232 32980 ft 498 kts 159°
2026-04-23 12:29 38.64973 21.56326 32975 ft 499 kts 159°
2026-04-23 12:29 38.58848 21.60396 32976 ft 499 kts 159°
2026-04-23 12:30 38.52684 21.64482 32967 ft 499 kts 159°
2026-04-23 12:30 38.46526 21.68555 32981 ft 498 kts 160°
2026-04-23 12:31 38.40365 21.72621 32972 ft 498 kts 160°
2026-04-23 12:31 38.34218 21.76673 32972 ft 497 kts 160°
2026-04-23 12:32 38.28085 21.80711 32970 ft 496 kts 160°
2026-04-23 12:32 38.21944 21.84745 32982 ft 497 kts 160°
2026-04-23 12:33 38.15797 21.88770 32970 ft 497 kts 160°
2026-04-23 12:33 38.09662 21.92783 32965 ft 495 kts 160°
2026-04-23 12:34 38.03537 21.96782 32948 ft 495 kts 160°
2026-04-23 12:34 37.97419 22.00765 32951 ft 495 kts 160°
2026-04-23 12:35 37.91297 22.04749 32936 ft 495 kts 160°
2026-04-23 12:35 37.85172 22.08730 32959 ft 495 kts 161°
2026-04-23 12:36 37.79035 22.12700 32970 ft 496 kts 161°
2026-04-23 12:36 37.72873 22.16683 32963 ft 498 kts 161°
2026-04-23 12:37 37.66709 22.20664 32972 ft 498 kts 160°
2026-04-23 12:37 37.60575 22.24621 32973 ft 498 kts 161°
2026-04-23 12:38 37.54408 22.28583 32975 ft 497 kts 161°
2026-04-23 12:38 37.48236 22.32543 32956 ft 497 kts 161°
2026-04-23 12:39 37.42091 22.36481 32966 ft 495 kts 161°
2026-04-23 12:39 37.35967 22.40400 32967 ft 494 kts 161°
2026-04-23 12:40 37.29833 22.44311 33003 ft 496 kts 161°
2026-04-23 12:40 37.26748 22.46274 33204 ft 498 kts 160°
2026-04-23 12:40 37.23667 22.48238 33568 ft 496 kts 160°
2026-04-23 12:41 37.20594 22.50197 33901 ft 495 kts 161°
2026-04-23 12:41 37.17522 22.52153 34218 ft 495 kts 161°
2026-04-23 12:41 37.14454 22.54104 34529 ft 494 kts 161°
2026-04-23 12:41 37.11390 22.56047 34794 ft 494 kts 160°
2026-04-23 12:42 37.08317 22.57992 34913 ft 496 kts 160°
2026-04-23 12:42 37.05229 22.59946 34963 ft 497 kts 160°
2026-04-23 12:42 36.99087 22.63834 34965 ft 493 kts 160°
2026-04-23 12:43 36.92983 22.67687 34971 ft 490 kts 160°
2026-04-23 12:43 36.86897 22.71520 34978 ft 490 kts 160°
2026-04-23 12:44 36.80812 22.75349 34974 ft 490 kts 160°
2026-04-23 12:44 36.74726 22.79172 34970 ft 490 kts 160°
2026-04-23 12:45 36.68633 22.82988 34974 ft 490 kts 160°
2026-04-23 12:45 36.62525 22.86811 34974 ft 492 kts 160°
2026-04-23 12:46 36.56410 22.90629 34973 ft 492 kts 160°
2026-04-23 12:46 36.50285 22.94446 34974 ft 493 kts 160°
2026-04-23 12:47 36.44192 22.98241 34971 ft 493 kts 160°
2026-04-23 12:47 36.38053 23.02052 34972 ft 493 kts 161°
2026-04-23 12:48 36.31913 23.05860 34972 ft 493 kts 161°
2026-04-23 12:48 36.25778 23.09661 34973 ft 493 kts 161°
2026-04-23 12:49 36.19646 23.13454 34972 ft 492 kts 161°
2026-04-23 12:49 36.13516 23.17230 34979 ft 492 kts 160°
2026-04-23 12:50 36.07394 23.21004 34980 ft 491 kts 161°
2026-04-23 12:50 36.01272 23.24766 34971 ft 491 kts 160°
2026-04-23 12:51 35.95156 23.28518 34976 ft 490 kts 161°
2026-04-23 12:51 35.89045 23.32259 34963 ft 490 kts 160°
2026-04-23 12:52 35.82937 23.35995 34961 ft 490 kts 160°
2026-04-23 12:52 35.76829 23.39727 34962 ft 490 kts 161°
2026-04-23 12:53 35.70730 23.43439 34965 ft 489 kts 160°
2026-04-23 12:53 35.64630 23.47152 34962 ft 489 kts 160°
2026-04-23 12:54 35.58525 23.50861 34965 ft 489 kts 161°
2026-04-23 12:54 35.52416 23.54564 34963 ft 490 kts 161°
2026-04-23 12:55 35.46345 23.58237 34964 ft 490 kts 161°
2026-04-23 12:55 35.40230 23.61934 34966 ft 491 kts 160°
2026-04-23 12:56 35.34103 23.65632 34962 ft 491 kts 160°
2026-04-23 12:56 35.27969 23.69325 34967 ft 491 kts 161°
2026-04-23 12:57 35.21835 23.73010 34956 ft 491 kts 160°
2026-04-23 12:57 35.15718 23.76683 34961 ft 489 kts 160°
2026-04-23 12:58 35.09617 23.80338 34961 ft 488 kts 160°
2026-04-23 12:58 35.03521 23.83985 34964 ft 487 kts 160°
2026-04-23 12:59 34.97437 23.87616 34962 ft 487 kts 160°
2026-04-23 12:59 34.91356 23.91242 34964 ft 486 kts 160°
2026-04-23 13:00 34.85274 23.94863 34963 ft 486 kts 160°
2026-04-23 13:00 34.79188 23.98477 34962 ft 486 kts 160°
2026-04-23 13:01 34.73107 24.02085 34965 ft 487 kts 160°
2026-04-23 13:01 34.67022 24.05689 34963 ft 487 kts 160°
2026-04-23 13:02 34.60937 24.09288 34962 ft 486 kts 160°
2026-04-23 13:02 34.54854 24.12878 34967 ft 486 kts 160°
2026-04-23 13:03 34.48777 24.16459 34960 ft 486 kts 160°
2026-04-23 13:03 34.42698 24.20037 34963 ft 485 kts 160°
2026-04-23 13:04 34.36667 24.23579 34962 ft 485 kts 160°
2026-04-23 13:04 34.30592 24.27141 34966 ft 485 kts 160°
2026-04-23 13:05 34.24519 24.30699 34961 ft 485 kts 160°
2026-04-23 13:05 34.18451 24.34250 34963 ft 485 kts 160°
2026-04-23 13:06 34.09346 24.39557 34963 ft 485 kts 160°
2026-04-23 13:07 34.03276 24.43107 34963 ft 486 kts 159°
2026-04-23 13:07 33.97539 24.47551 34966 ft 496 kts 146°
2026-04-23 13:08 33.93223 24.52146 34969 ft 499 kts 142°
2026-04-23 13:08 33.88081 24.57769 34967 ft 500 kts 143°
2026-04-23 13:09 33.82912 24.63366 34963 ft 500 kts 143°
2026-04-23 13:09 33.77724 24.68937 34961 ft 500 kts 143°
2026-04-23 13:10 33.72532 24.74488 34961 ft 500 kts 143°
2026-04-23 13:10 33.67328 24.80041 34964 ft 500 kts 143°
2026-04-23 13:11 33.62125 24.85587 34962 ft 500 kts 143°
2026-04-23 13:11 33.56919 24.91130 34965 ft 501 kts 143°
2026-04-23 13:12 33.51707 24.96669 34967 ft 501 kts 143°
2026-04-23 13:12 33.46493 25.02203 34961 ft 501 kts 143°
2026-04-23 13:13 33.41270 25.07734 34961 ft 501 kts 143°
2026-04-23 13:13 33.36044 25.13260 34962 ft 502 kts 143°
2026-04-23 13:14 33.30809 25.18785 34963 ft 502 kts 143°
2026-04-23 13:14 33.25576 25.24302 34950 ft 502 kts 143°
2026-04-23 13:15 33.20336 25.29815 34944 ft 502 kts 143°
2026-04-23 13:15 33.15098 25.35317 34944 ft 501 kts 143°
2026-04-23 13:16 33.09861 25.40812 34946 ft 501 kts 143°
2026-04-23 13:16 33.04621 25.46297 34950 ft 501 kts 143°
2026-04-23 13:17 32.99384 25.51771 34954 ft 501 kts 143°
2026-04-23 13:17 32.94144 25.57238 34956 ft 501 kts 143°
2026-04-23 13:18 32.88891 25.62710 34957 ft 502 kts 143°
2026-04-23 13:18 32.83669 25.68140 34954 ft 502 kts 143°
2026-04-23 13:19 32.78405 25.73604 34956 ft 503 kts 143°
2026-04-23 13:19 32.73137 25.79068 34956 ft 503 kts 143°
2026-04-23 13:20 32.67865 25.84528 34956 ft 503 kts 143°
2026-04-23 13:20 32.62587 25.89980 34952 ft 503 kts 143°
2026-04-23 13:21 32.57306 25.95428 34955 ft 503 kts 143°
2026-04-23 13:21 32.52026 26.00866 34956 ft 503 kts 143°
2026-04-23 13:22 32.46736 26.06303 34955 ft 503 kts 143°
2026-04-23 13:22 32.41443 26.11739 34952 ft 503 kts 143°
2026-04-23 13:23 32.36186 26.17127 34954 ft 503 kts 143°
2026-04-23 13:23 32.30892 26.22545 34957 ft 503 kts 143°
2026-04-23 13:24 32.25594 26.27960 34954 ft 503 kts 143°
2026-04-23 13:24 32.20296 26.33365 34963 ft 503 kts 143°
2026-04-23 13:25 32.14998 26.38762 34962 ft 503 kts 143°
2026-04-23 13:25 32.09688 26.44159 34963 ft 504 kts 143°
2026-04-23 13:26 32.04381 26.49545 34964 ft 504 kts 143°
2026-04-23 13:26 31.99072 26.54928 34965 ft 503 kts 143°
2026-04-23 13:27 31.93759 26.60305 34964 ft 503 kts 143°
2026-04-23 13:27 31.88456 26.65666 34961 ft 503 kts 143°
2026-04-23 13:28 31.83150 26.71017 34964 ft 502 kts 143°
2026-04-23 13:28 31.77840 26.76366 34961 ft 502 kts 144°
2026-04-23 13:29 31.72534 26.81702 34963 ft 502 kts 144°
2026-04-23 13:29 31.67223 26.87032 34963 ft 502 kts 144°
2026-04-23 13:30 31.61914 26.92356 34963 ft 502 kts 144°
2026-04-23 13:30 31.56644 26.97634 34962 ft 502 kts 144°
2026-04-23 13:31 31.51333 27.02942 34963 ft 502 kts 144°
2026-04-23 13:31 31.46014 27.08250 34963 ft 502 kts 144°
2026-04-23 13:32 31.40695 27.13551 34964 ft 502 kts 144°
2026-04-23 13:32 31.35380 27.18845 34964 ft 502 kts 143°
2026-04-23 13:33 31.30508 27.24748 34963 ft 508 kts 132°
2026-04-23 13:33 31.26480 27.31582 34968 ft 511 kts 127°
2026-04-23 13:34 31.22559 27.38501 34964 ft 511 kts 127°
2026-04-23 13:34 31.18585 27.45381 34963 ft 510 kts 128°
2026-04-23 13:35 31.14599 27.52234 34967 ft 511 kts 127°
2026-04-23 13:35 31.10586 27.59073 34959 ft 510 kts 128°
2026-04-23 13:36 31.06525 27.65856 34963 ft 510 kts 128°
2026-04-23 13:36 31.02464 27.72624 34960 ft 510 kts 128°
2026-04-23 13:37 30.98401 27.79399 34957 ft 510 kts 128°
2026-04-23 13:37 30.94340 27.86173 34955 ft 510 kts 128°
2026-04-23 13:38 30.90281 27.92935 34944 ft 509 kts 128°
2026-04-23 13:38 30.86216 27.99693 34947 ft 509 kts 128°
2026-04-23 13:39 30.82155 28.06435 34943 ft 509 kts 128°
2026-04-23 13:39 30.78086 28.13172 34944 ft 509 kts 128°
2026-04-23 13:40 30.74015 28.19900 34948 ft 508 kts 129°
2026-04-23 13:40 30.69945 28.26617 34941 ft 508 kts 129°
2026-04-23 13:41 30.65902 28.33279 34937 ft 508 kts 129°
2026-04-23 13:41 30.61828 28.39984 34945 ft 508 kts 129°
2026-04-23 13:42 30.57755 28.46675 34943 ft 507 kts 129°
2026-04-23 13:42 30.53679 28.53359 34934 ft 507 kts 129°
2026-04-23 13:43 30.49596 28.60042 34943 ft 508 kts 129°
2026-04-23 13:43 30.45509 28.66719 34944 ft 508 kts 129°
2026-04-23 13:44 30.41413 28.73400 34929 ft 509 kts 129°
2026-04-23 13:44 30.37314 28.80083 34942 ft 509 kts 129°
2026-04-23 13:45 30.33905 28.85627 34932 ft 509 kts 129°
2026-04-23 13:45 30.29102 28.93424 34935 ft 509 kts 129°
2026-04-23 13:46 30.24990 29.00090 34942 ft 509 kts 129°
2026-04-23 13:46 30.20875 29.06752 34932 ft 509 kts 129°
2026-04-23 13:47 30.16755 29.13404 34935 ft 509 kts 129°
2026-04-23 13:47 30.12637 29.20041 34932 ft 508 kts 129°
2026-04-23 13:48 30.08565 29.26718 34943 ft 509 kts 128°
2026-04-23 13:48 30.04562 29.33387 34946 ft 509 kts 128°
2026-04-23 13:49 30.00531 29.40092 34944 ft 508 kts 128°
2026-04-23 13:49 29.96484 29.46783 34949 ft 508 kts 128°
2026-04-23 13:50 29.92431 29.53464 34944 ft 508 kts 129°
2026-04-23 13:50 29.88376 29.60140 34948 ft 508 kts 128°
2026-04-23 13:51 29.84317 29.66819 34927 ft 509 kts 129°
2026-04-23 13:51 29.80251 29.73486 34923 ft 509 kts 129°
2026-04-23 13:52 29.76184 29.80146 34927 ft 508 kts 129°
2026-04-23 13:52 29.72117 29.86804 34927 ft 508 kts 129°
2026-04-23 13:53 29.68050 29.93448 34927 ft 508 kts 129°
2026-04-23 13:53 29.63976 30.00093 34925 ft 508 kts 129°
2026-04-23 13:54 29.59898 30.06731 34926 ft 509 kts 129°
2026-04-23 13:54 29.55813 30.13370 34925 ft 509 kts 129°
2026-04-23 13:55 29.51723 30.20006 34928 ft 509 kts 129°
2026-04-23 13:55 29.47632 30.26636 34923 ft 509 kts 129°
2026-04-23 13:56 29.44229 30.32143 34930 ft 509 kts 129°
2026-04-23 13:56 29.40101 30.38749 34922 ft 508 kts 132°
2026-04-23 13:57 29.34599 30.45649 34928 ft 503 kts 139°
2026-04-23 13:57 29.29692 30.51384 34928 ft 504 kts 139°
2026-04-23 13:58 29.25599 30.56208 34926 ft 504 kts 139°
2026-04-23 13:58 29.20726 30.61993 34926 ft 505 kts 139°
2026-04-23 13:59 29.15854 30.67778 34930 ft 505 kts 139°
2026-04-23 13:59 29.11015 30.73519 34923 ft 505 kts 139°
2026-04-23 14:00 29.06141 30.79290 34924 ft 504 kts 140°
2026-04-23 14:00 29.01267 30.85047 34923 ft 504 kts 140°
2026-04-23 14:01 28.96385 30.90802 34926 ft 505 kts 140°
2026-04-23 14:01 28.91505 30.96556 34918 ft 505 kts 140°
2026-04-23 14:02 28.86614 31.02310 34931 ft 505 kts 140°
2026-04-23 14:02 28.81721 31.08057 34921 ft 506 kts 140°
2026-04-23 14:03 28.76820 31.13809 34914 ft 506 kts 140°
2026-04-23 14:03 28.71919 31.19553 34914 ft 505 kts 141°
2026-04-23 14:04 28.67066 31.25345 34913 ft 506 kts 139°
2026-04-23 14:04 28.62358 31.31324 34905 ft 507 kts 138°
2026-04-23 14:05 28.57670 31.37316 34904 ft 507 kts 139°
2026-04-23 14:05 28.52952 31.43277 34913 ft 507 kts 139°
2026-04-23 14:06 28.48214 31.49223 34920 ft 507 kts 139°
2026-04-23 14:06 28.43466 31.55170 34919 ft 508 kts 140°
2026-04-23 14:07 28.38712 31.61120 34918 ft 509 kts 140°
2026-04-23 14:07 28.31553 31.70067 34908 ft 510 kts 140°
2026-04-23 14:08 28.26816 31.75983 34904 ft 510 kts 140°
2026-04-23 14:08 28.22044 31.81926 34914 ft 510 kts 140°
2026-04-23 14:09 28.17268 31.87866 34889 ft 510 kts 141°
2026-04-23 14:09 28.12485 31.93809 34892 ft 510 kts 141°
2026-04-23 14:10 28.07699 31.99749 34888 ft 510 kts 141°
2026-04-23 14:10 28.03113 32.05920 34888 ft 518 kts 133°
2026-04-23 14:11 27.99401 32.13005 34874 ft 527 kts 125°
2026-04-23 14:11 27.95959 32.20325 34883 ft 527 kts 125°
2026-04-23 14:12 27.92496 32.27616 34873 ft 527 kts 126°
2026-04-23 14:12 27.88987 32.34891 34864 ft 527 kts 126°
2026-04-23 14:13 27.85464 32.42157 34868 ft 527 kts 126°
2026-04-23 14:13 27.81942 32.49416 34865 ft 527 kts 126°
2026-04-23 14:14 27.78410 32.56685 34830 ft 528 kts 126°
2026-04-23 14:14 27.74870 32.63956 34815 ft 529 kts 126°
2026-04-23 14:15 27.71326 32.71231 34831 ft 529 kts 126°
2026-04-23 14:15 27.67769 32.78505 34831 ft 530 kts 126°
2026-04-23 14:16 27.64211 32.85786 34830 ft 530 kts 126°
2026-04-23 14:16 27.60640 32.93077 34834 ft 531 kts 127°
2026-04-23 14:17 27.57060 33.00370 34838 ft 532 kts 127°
2026-04-23 14:17 27.53473 33.07665 34814 ft 533 kts 127°
2026-04-23 14:18 27.49878 33.14964 34831 ft 533 kts 127°
2026-04-23 14:18 27.46277 33.22266 34810 ft 534 kts 127°
2026-04-23 14:19 27.42668 33.29570 34820 ft 534 kts 127°
2026-04-23 14:19 27.39053 33.36876 34831 ft 534 kts 127°
2026-04-23 14:20 27.35434 33.44173 34830 ft 534 kts 127°
2026-04-23 14:20 27.31813 33.51468 34832 ft 534 kts 127°
2026-04-23 14:21 27.28213 33.58710 34836 ft 534 kts 127°
2026-04-23 14:21 27.24585 33.66000 34838 ft 534 kts 127°
2026-04-23 14:22 27.20953 33.73286 34832 ft 535 kts 127°
2026-04-23 14:22 27.17398 33.80636 34831 ft 539 kts 122°
2026-04-23 14:23 27.14542 33.88485 34835 ft 544 kts 118°
2026-04-23 14:23 27.11802 33.96401 34832 ft 544 kts 118°
2026-04-23 14:24 27.09010 34.04290 34826 ft 543 kts 119°
2026-04-23 14:24 27.06190 34.12153 34840 ft 543 kts 119°
2026-04-23 14:25 27.03370 34.20019 34832 ft 543 kts 119°
2026-04-23 14:25 27.00544 34.27886 34836 ft 544 kts 119°
2026-04-23 14:26 26.97723 34.35761 34833 ft 544 kts 119°
2026-04-23 14:26 26.94900 34.43634 34834 ft 544 kts 119°
2026-04-23 14:27 26.92070 34.51498 34832 ft 544 kts 119°
2026-04-23 14:27 26.89235 34.59358 34833 ft 544 kts 119°
2026-04-23 14:28 26.86402 34.67205 34814 ft 543 kts 119°
2026-04-23 14:28 26.83564 34.75044 34831 ft 543 kts 119°
2026-04-23 14:29 26.80726 34.82878 34830 ft 543 kts 119°
2026-04-23 14:29 26.77882 34.90697 34830 ft 542 kts 119°
2026-04-23 14:30 26.75034 34.98509 34819 ft 542 kts 119°
2026-04-23 14:30 26.72176 35.06305 34824 ft 542 kts 119°
2026-04-23 14:31 26.69309 35.14102 34817 ft 542 kts 119°
2026-04-23 14:31 26.66442 35.21904 34810 ft 542 kts 119°
2026-04-23 14:32 26.63573 35.29701 34820 ft 542 kts 119°
2026-04-23 14:32 26.60698 35.37490 34810 ft 542 kts 119°
2026-04-23 14:33 26.57838 35.45226 34806 ft 542 kts 119°
2026-04-23 14:33 26.54936 35.52995 34802 ft 542 kts 120°
2026-04-23 14:34 26.51971 35.60723 34800 ft 541 kts 120°
2026-04-23 14:34 26.48999 35.68439 34802 ft 541 kts 120°
2026-04-23 14:35 26.46035 35.76152 34794 ft 540 kts 120°
2026-04-23 14:35 26.43075 35.83854 34793 ft 540 kts 120°
2026-04-23 14:36 26.40114 35.91554 34791 ft 540 kts 120°
2026-04-23 14:36 26.37150 35.99241 34781 ft 539 kts 120°
2026-04-23 14:37 26.34182 36.06922 34785 ft 539 kts 120°
2026-04-23 14:37 26.31211 36.14595 34784 ft 539 kts 120°
2026-04-23 14:38 26.28231 36.22267 34776 ft 540 kts 120°
2026-04-23 14:38 26.25248 36.29946 34781 ft 540 kts 120°
2026-04-23 14:39 26.22259 36.37627 34778 ft 540 kts 120°
2026-04-23 14:39 26.19264 36.45308 34780 ft 541 kts 120°
2026-04-23 14:40 26.16055 36.52772 34782 ft 535 kts 126°
2026-04-23 14:40 26.12458 36.60002 34783 ft 534 kts 127°
2026-04-23 14:41 26.08843 36.67223 34777 ft 535 kts 126°
2026-04-23 14:41 26.05256 36.74470 34774 ft 535 kts 126°
2026-04-23 14:42 26.01679 36.81727 34777 ft 535 kts 126°
2026-04-23 14:42 25.98097 36.88979 34783 ft 535 kts 126°
2026-04-23 14:43 25.94513 36.96213 34775 ft 534 kts 126°
2026-04-23 14:43 25.90928 37.03440 34783 ft 534 kts 126°
2026-04-23 14:44 25.87336 37.10667 34776 ft 534 kts 126°
2026-04-23 14:44 25.84351 37.16666 34777 ft 534 kts 126°
2026-04-23 14:45 25.80757 37.23883 34774 ft 534 kts 126°
2026-04-23 14:45 25.77166 37.31087 34778 ft 534 kts 126°
2026-04-23 14:46 25.73574 37.38296 34785 ft 534 kts 126°
2026-04-23 14:46 25.69979 37.45504 34784 ft 534 kts 126°
2026-04-23 14:47 25.66378 37.52715 34776 ft 535 kts 126°
2026-04-23 14:47 25.62767 37.59927 34780 ft 535 kts 126°
2026-04-23 14:48 25.59162 37.67125 34789 ft 534 kts 126°
2026-04-23 14:48 25.55550 37.74317 34783 ft 534 kts 126°
2026-04-23 14:49 25.51934 37.81503 34785 ft 534 kts 126°
2026-04-23 14:49 25.48318 37.88683 34790 ft 534 kts 126°
2026-04-23 14:50 25.44697 37.95862 34784 ft 534 kts 126°
2026-04-23 14:50 25.41096 38.02990 34784 ft 534 kts 126°
2026-04-23 14:51 25.37465 38.10168 34779 ft 535 kts 126°
2026-04-23 14:51 25.33825 38.17350 34776 ft 536 kts 126°
2026-04-23 14:52 25.30177 38.24534 34774 ft 536 kts 126°
2026-04-23 14:52 25.26533 38.31704 34788 ft 535 kts 126°
2026-04-23 14:53 25.22889 38.38867 34790 ft 535 kts 126°
2026-04-23 14:53 25.19231 38.46038 34800 ft 536 kts 126°
2026-04-23 14:54 25.15571 38.53207 34796 ft 536 kts 126°
2026-04-23 14:54 25.11904 38.60377 34808 ft 537 kts 126°
2026-04-23 14:55 25.08235 38.67549 34807 ft 536 kts 126°
2026-04-23 14:55 25.04564 38.74717 34793 ft 537 kts 126°
2026-04-23 14:56 25.00915 38.81823 34797 ft 536 kts 126°
2026-04-23 14:56 24.97248 38.88962 34794 ft 534 kts 126°
2026-04-23 14:57 24.93578 38.96070 34804 ft 533 kts 126°
2026-04-23 14:57 24.89899 39.03147 34802 ft 532 kts 126°
2026-04-23 14:58 24.86215 39.10224 34804 ft 533 kts 126°
2026-04-23 14:58 24.82529 39.17315 34814 ft 534 kts 126°
2026-04-23 14:59 24.78829 39.24410 34818 ft 535 kts 126°
2026-04-23 14:59 24.75117 39.31527 34831 ft 536 kts 126°
2026-04-23 15:00 24.71400 39.38649 34832 ft 537 kts 126°
2026-04-23 15:00 24.67678 39.45764 34829 ft 537 kts 126°
2026-04-23 15:01 24.63957 39.52868 34837 ft 535 kts 126°
2026-04-23 15:01 24.60254 39.59947 34832 ft 532 kts 126°
2026-04-23 15:02 24.56658 39.67040 34836 ft 535 kts 119°
2026-04-23 15:02 24.54310 39.74859 34846 ft 543 kts 105°
2026-04-23 15:03 24.53349 39.83132 34842 ft 547 kts 98°
2026-04-23 15:03 24.52652 39.91466 34837 ft 548 kts 98°
2026-04-23 15:04 24.51902 39.99739 34835 ft 549 kts 98°
2026-04-23 15:04 24.51093 40.08069 34843 ft 548 kts 99°
2026-04-23 15:05 24.50273 40.16391 34858 ft 548 kts 99°
2026-04-23 15:05 24.49456 40.24710 34860 ft 548 kts 99°
2026-04-23 15:06 24.48635 40.33024 34863 ft 548 kts 99°
2026-04-23 15:06 24.47811 40.41331 34860 ft 548 kts 99°
2026-04-23 15:07 24.46980 40.49648 34863 ft 548 kts 99°
2026-04-23 15:07 24.46146 40.57957 34859 ft 547 kts 99°
2026-04-23 15:08 24.45314 40.66250 34860 ft 546 kts 99°
2026-04-23 15:09 24.44065 40.78672 34862 ft 546 kts 99°
2026-04-23 15:09 24.43228 40.86950 34862 ft 545 kts 99°
2026-04-23 15:10 24.42532 40.93819 34863 ft 545 kts 99°
2026-04-23 15:10 24.41542 41.03465 34862 ft 544 kts 99°
2026-04-23 15:11 24.40690 41.11704 34874 ft 543 kts 99°
2026-04-23 15:11 24.39824 41.19925 34905 ft 542 kts 99°
2026-04-23 15:12 24.38950 41.28146 34908 ft 543 kts 99°
2026-04-23 15:12 24.38075 41.36364 34908 ft 543 kts 99°
2026-04-23 15:13 24.37198 41.44587 34916 ft 542 kts 99°
2026-04-23 15:13 24.36317 41.52802 34915 ft 543 kts 98°
2026-04-23 15:14 24.35429 41.61021 34916 ft 542 kts 98°
2026-04-23 15:14 24.34544 41.69172 34918 ft 542 kts 98°
2026-04-23 15:15 24.33649 41.77388 34914 ft 542 kts 98°
2026-04-23 15:15 24.32400 41.85520 34909 ft 539 kts 108°
2026-04-23 15:16 24.30291 41.93390 34925 ft 538 kts 109°
2026-04-23 15:16 24.28151 42.01253 34917 ft 538 kts 109°
2026-04-23 15:17 24.26051 42.09128 34916 ft 538 kts 109°
2026-04-23 15:17 24.23973 42.16998 34929 ft 538 kts 108°
2026-04-23 15:18 24.21893 42.24870 34927 ft 537 kts 109°
2026-04-23 15:18 24.19804 42.32731 34926 ft 537 kts 109°
2026-04-23 15:19 24.17712 42.40586 34928 ft 537 kts 109°
2026-04-23 15:19 24.15614 42.48445 34923 ft 538 kts 109°
2026-04-23 15:20 24.13870 42.54978 34928 ft 538 kts 109°
2026-04-23 15:20 24.11407 42.64156 34931 ft 538 kts 109°
2026-04-23 15:21 24.09299 42.72000 34931 ft 537 kts 109°
2026-04-23 15:21 24.07191 42.79840 34923 ft 537 kts 109°
2026-04-23 15:22 24.05081 42.87664 34930 ft 535 kts 109°
2026-04-23 15:22 24.02970 42.95466 34925 ft 534 kts 109°
2026-04-23 15:23 24.00876 43.03201 34924 ft 533 kts 109°
2026-04-23 15:23 23.98759 43.11024 34923 ft 533 kts 109°
2026-04-23 15:24 23.96654 43.18781 34929 ft 532 kts 109°
2026-04-23 15:24 23.94541 43.26535 34931 ft 532 kts 110°
2026-04-23 15:25 23.92425 43.34291 34941 ft 532 kts 110°
2026-04-23 15:25 23.90662 43.40740 34934 ft 533 kts 110°
2026-04-23 15:26 23.88179 43.49797 34941 ft 532 kts 110°
2026-04-23 15:26 23.86052 43.57549 34931 ft 532 kts 110°
2026-04-23 15:27 23.83922 43.65292 34943 ft 532 kts 110°
2026-04-23 15:27 23.81789 43.73030 34933 ft 532 kts 110°
2026-04-23 15:28 23.79666 43.80718 34933 ft 532 kts 110°
2026-04-23 15:28 23.77654 43.88502 34931 ft 534 kts 105°
2026-04-23 15:29 23.76705 43.96565 34945 ft 537 kts 96°
2026-04-23 15:29 23.76180 44.04697 34929 ft 537 kts 96°
2026-04-23 15:30 23.75621 44.12816 34932 ft 537 kts 97°
2026-04-23 15:30 23.75017 44.20933 34941 ft 536 kts 97°
2026-04-23 15:31 23.74395 44.29048 34935 ft 537 kts 97°
2026-04-23 15:31 23.73771 44.37167 34938 ft 537 kts 97°
2026-04-23 15:32 23.73145 44.45301 34942 ft 538 kts 97°
2026-04-23 15:32 23.72623 44.52062 34931 ft 538 kts 97°
2026-04-23 15:33 23.71989 44.60209 34937 ft 539 kts 97°
2026-04-23 15:33 23.71349 44.68361 34931 ft 540 kts 97°
2026-04-23 15:34 23.70704 44.76520 34937 ft 540 kts 96°
2026-04-23 15:34 23.70056 44.84685 34932 ft 541 kts 96°
2026-04-23 15:35 23.69401 44.92865 34940 ft 541 kts 96°
2026-04-23 15:35 23.68738 45.01038 34956 ft 541 kts 96°
2026-04-23 15:36 23.68072 45.09236 34948 ft 543 kts 96°
2026-04-23 15:36 23.67402 45.17443 34942 ft 544 kts 96°
2026-04-23 15:37 23.66724 45.25659 34942 ft 544 kts 96°
2026-04-23 15:37 23.66044 45.33877 34944 ft 544 kts 96°
2026-04-23 15:38 23.65400 45.41658 34949 ft 545 kts 96°
2026-04-23 15:38 23.64711 45.49900 34943 ft 546 kts 96°
2026-04-23 15:39 23.64019 45.58145 34952 ft 546 kts 96°
2026-04-23 15:39 23.63321 45.66387 34953 ft 546 kts 96°
2026-04-23 15:40 23.62621 45.74634 34954 ft 546 kts 96°
2026-04-23 15:40 23.61916 45.82883 34959 ft 546 kts 96°
2026-04-23 15:41 23.61212 45.91077 34954 ft 546 kts 96°
2026-04-23 15:41 23.60495 45.99320 34965 ft 546 kts 96°
2026-04-23 15:42 23.59779 46.07573 34962 ft 547 kts 96°
2026-04-23 15:42 23.59055 46.15828 34965 ft 547 kts 96°
2026-04-23 15:43 23.58330 46.24089 34964 ft 547 kts 96°
2026-04-23 15:43 23.57598 46.32346 34957 ft 547 kts 96°
2026-04-23 15:44 23.56860 46.40604 34927 ft 547 kts 96°
2026-04-23 15:44 23.56117 46.48865 34930 ft 548 kts 96°
2026-04-23 15:45 23.55369 46.57136 34924 ft 548 kts 96°
2026-04-23 15:45 23.54607 46.65389 34925 ft 548 kts 96°
2026-04-23 15:46 23.53843 46.73642 34927 ft 547 kts 96°
2026-04-23 15:46 23.53080 46.81822 34950 ft 546 kts 96°
2026-04-23 15:47 23.52309 46.90056 34954 ft 546 kts 96°
2026-04-23 15:47 23.51532 46.98340 34960 ft 546 kts 96°
2026-04-23 15:48 23.50754 47.06522 34954 ft 547 kts 97°
2026-04-23 15:48 23.49970 47.14756 34951 ft 547 kts 97°
2026-04-23 15:49 23.49182 47.23008 34942 ft 548 kts 97°
2026-04-23 15:49 23.48386 47.31261 34950 ft 548 kts 97°
2026-04-23 15:50 23.47586 47.39515 34941 ft 548 kts 97°
2026-04-23 15:50 23.46783 47.47768 34942 ft 548 kts 97°
2026-04-23 15:51 23.45978 47.56028 34943 ft 548 kts 97°
2026-04-23 15:51 23.45173 47.64281 34943 ft 548 kts 97°
2026-04-23 15:52 23.44365 47.72537 34944 ft 548 kts 97°
2026-04-23 15:52 23.43554 47.80781 34931 ft 547 kts 97°
2026-04-23 15:53 23.42739 47.89023 34935 ft 547 kts 97°
2026-04-23 15:53 23.41918 47.97264 34935 ft 548 kts 97°
2026-04-23 15:54 23.41095 48.05514 34934 ft 548 kts 97°
2026-04-23 15:54 23.40264 48.13761 34936 ft 548 kts 97°
2026-04-23 15:55 23.39430 48.22001 34935 ft 547 kts 97°
2026-04-23 15:55 23.38600 48.30182 34934 ft 547 kts 97°
2026-04-23 15:56 23.37955 48.38426 34948 ft 547 kts 93°
2026-04-23 15:56 23.37650 48.46695 34940 ft 547 kts 92°
2026-04-23 15:57 23.37363 48.54977 34930 ft 547 kts 92°
2026-04-23 15:57 23.37038 48.63250 34924 ft 547 kts 93°
2026-04-23 15:58 23.36693 48.71512 34928 ft 546 kts 92°
2026-04-23 15:58 23.36343 48.79772 34923 ft 546 kts 93°
2026-04-23 15:59 23.35995 48.88026 34926 ft 546 kts 93°
2026-04-23 15:59 23.35645 48.96274 34931 ft 545 kts 92°
2026-04-23 16:00 23.35287 49.04515 34925 ft 545 kts 93°
2026-04-23 16:00 23.34423 49.12687 34928 ft 544 kts 99°
2026-04-23 16:01 23.33204 49.20809 34930 ft 544 kts 100°
2026-04-23 16:01 23.31982 49.28930 34928 ft 544 kts 100°
2026-04-23 16:02 23.30794 49.37056 34927 ft 544 kts 99°
2026-04-23 16:02 23.29617 49.45186 34923 ft 544 kts 99°
2026-04-23 16:03 23.28439 49.53309 34920 ft 544 kts 99°
2026-04-23 16:03 23.27254 49.61437 34908 ft 544 kts 99°
2026-04-23 16:04 23.26065 49.69550 34907 ft 543 kts 99°
2026-04-23 16:04 23.24877 49.77608 34909 ft 543 kts 99°
2026-04-23 16:05 23.23871 49.84401 34906 ft 543 kts 99°
2026-04-23 16:05 23.22478 49.93815 34909 ft 543 kts 99°
2026-04-23 16:06 23.21272 50.01920 34907 ft 543 kts 100°
2026-04-23 16:06 23.20063 50.10027 34913 ft 543 kts 99°
2026-04-23 16:07 23.18848 50.18119 34904 ft 542 kts 99°
2026-04-23 16:07 23.17632 50.26200 34908 ft 542 kts 99°
2026-04-23 16:08 23.16411 50.34272 34909 ft 541 kts 99°
2026-04-23 16:08 23.15192 50.42329 34903 ft 540 kts 99°
2026-04-23 16:09 23.13969 50.50374 34909 ft 540 kts 99°
2026-04-23 16:09 23.12741 50.58418 34907 ft 540 kts 100°
2026-04-23 16:10 23.11508 50.66456 34907 ft 539 kts 100°
2026-04-23 16:10 23.10275 50.74494 34908 ft 540 kts 100°
2026-04-23 16:11 23.09036 50.82525 34907 ft 539 kts 100°
2026-04-23 16:11 23.07792 50.90557 34906 ft 539 kts 100°
2026-04-23 16:12 23.06546 50.98585 34900 ft 539 kts 100°
2026-04-23 16:12 23.05296 51.06610 34897 ft 539 kts 100°
2026-04-23 16:13 23.04042 51.14625 34898 ft 538 kts 100°
2026-04-23 16:13 23.02164 51.26576 34896 ft 537 kts 100°
2026-04-23 16:14 23.00908 51.34569 34897 ft 537 kts 100°
2026-04-23 16:14 22.99644 51.42551 34884 ft 537 kts 100°
2026-04-23 16:15 22.98376 51.50538 34883 ft 537 kts 100°
2026-04-23 16:15 22.97104 51.58517 34877 ft 536 kts 100°
2026-04-23 16:16 22.95831 51.66488 34880 ft 536 kts 100°
2026-04-23 16:16 22.94553 51.74461 34871 ft 537 kts 100°
2026-04-23 16:17 22.93273 51.82426 34869 ft 536 kts 100°
2026-04-23 16:17 22.91986 51.90390 34862 ft 536 kts 100°
2026-04-23 16:18 22.90697 51.98344 34860 ft 536 kts 100°
2026-04-23 16:18 22.89406 52.06298 34861 ft 535 kts 100°
2026-04-23 16:19 22.88113 52.14239 34861 ft 534 kts 100°
2026-04-23 16:19 22.86815 52.22170 34862 ft 534 kts 100°
2026-04-23 16:20 22.85517 52.30088 34860 ft 533 kts 100°
2026-04-23 16:20 22.84436 52.36666 34860 ft 533 kts 100°
2026-04-23 16:21 22.83131 52.44580 34863 ft 533 kts 100°
2026-04-23 16:21 22.82194 52.52533 34855 ft 532 kts 91°
2026-04-23 16:22 22.82032 52.60545 34865 ft 532 kts 90°
2026-04-23 16:22 22.81892 52.68563 34861 ft 532 kts 90°
2026-04-23 16:23 22.81706 52.76584 34854 ft 532 kts 90°
2026-04-23 16:23 22.81493 52.84607 34853 ft 533 kts 90°
2026-04-23 16:24 22.81271 52.92630 34852 ft 533 kts 90°
2026-04-23 16:24 22.81047 53.00654 34852 ft 533 kts 90°
2026-04-23 16:25 22.80822 53.08675 34855 ft 532 kts 90°
2026-04-23 16:25 22.80593 53.16692 34851 ft 532 kts 90°
2026-04-23 16:26 22.80362 53.24701 34851 ft 531 kts 90°
2026-04-23 16:26 22.80126 53.32697 34851 ft 531 kts 90°
2026-04-23 16:27 22.79888 53.40630 34837 ft 530 kts 90°
2026-04-23 16:27 22.79644 53.48667 34849 ft 529 kts 90°
2026-04-23 16:28 22.79398 53.56585 34855 ft 529 kts 90°
2026-04-23 16:28 22.79148 53.64558 34844 ft 529 kts 90°
2026-04-23 16:29 22.78892 53.72518 34842 ft 529 kts 90°
2026-04-23 16:29 22.78632 53.80482 34844 ft 529 kts 90°
2026-04-23 16:30 22.78371 53.88445 34841 ft 529 kts 90°
2026-04-23 16:30 22.78929 53.96285 34844 ft 518 kts 68°
2026-04-23 16:31 22.80376 53.99831 34849 ft 512 kts 55°
2026-04-23 16:31 22.82407 54.02956 34851 ft 503 kts 43°
2026-04-23 16:31 22.87204 54.08421 34846 ft 501 kts 41°
2026-04-23 16:32 22.91975 54.13971 34852 ft 504 kts 42°
2026-04-23 16:32 22.96726 54.19590 34840 ft 506 kts 42°
2026-04-23 16:33 23.01478 54.25239 34851 ft 506 kts 43°
2026-04-23 16:33 23.06230 54.30889 34840 ft 507 kts 43°
2026-04-23 16:34 23.10986 54.36546 34843 ft 507 kts 43°
2026-04-23 16:34 23.15738 54.42202 34840 ft 507 kts 43°
2026-04-23 16:35 23.20491 54.47868 34848 ft 507 kts 43°
2026-04-23 16:35 23.25232 54.53524 34836 ft 506 kts 43°
2026-04-23 16:36 23.29971 54.59183 34832 ft 505 kts 43°
2026-04-23 16:36 23.34695 54.64834 34833 ft 504 kts 43°
2026-04-23 16:37 23.39405 54.70474 34845 ft 503 kts 43°
2026-04-23 16:37 23.44083 54.76079 34855 ft 503 kts 43°
2026-04-23 16:38 23.48789 54.81723 34851 ft 504 kts 43°
2026-04-23 16:38 23.53493 54.87379 34853 ft 504 kts 43°
2026-04-23 16:39 23.58203 54.93045 34851 ft 505 kts 43°
2026-04-23 16:39 23.62906 54.98707 34485 ft 505 kts 43°
2026-04-23 16:40 23.65260 55.01540 34131 ft 503 kts 43°
2026-04-23 16:40 23.67591 55.04352 33837 ft 497 kts 43°
2026-04-23 16:40 23.69892 55.07132 33536 ft 491 kts 43°
2026-04-23 16:40 23.72172 55.09889 33166 ft 487 kts 43°
2026-04-23 16:41 23.74438 55.12628 32732 ft 486 kts 43°
2026-04-23 16:41 23.76702 55.15363 32235 ft 485 kts 43°
2026-04-23 16:41 23.78955 55.18087 31746 ft 482 kts 43°
2026-04-23 16:41 23.81192 55.20792 31245 ft 478 kts 44°
2026-04-23 16:42 23.83411 55.23478 30756 ft 474 kts 44°
2026-04-23 16:42 23.85609 55.26140 30239 ft 470 kts 44°
2026-04-23 16:42 23.87789 55.28781 29761 ft 466 kts 44°
2026-04-23 16:42 23.89939 55.31390 29228 ft 455 kts 44°
2026-04-23 16:43 23.92019 55.33921 28696 ft 440 kts 44°
2026-04-23 16:43 23.94040 55.36378 28172 ft 428 kts 44°
2026-04-23 16:43 23.96017 55.38779 27664 ft 423 kts 44°
2026-04-23 16:43 23.97999 55.41179 27194 ft 429 kts 44°
2026-04-23 16:44 24.00007 55.43613 26714 ft 432 kts 45°
2026-04-23 16:44 24.02017 55.46055 26218 ft 431 kts 45°
2026-04-23 16:44 24.04018 55.48489 25720 ft 430 kts 45°
2026-04-23 16:44 24.06013 55.50918 25230 ft 428 kts 46°
2026-04-23 16:45 24.08003 55.53341 24724 ft 427 kts 46°
2026-04-23 16:45 24.09980 55.55751 24222 ft 425 kts 46°
2026-04-23 16:45 24.11952 55.58154 23730 ft 423 kts 46°
2026-04-23 16:45 24.13913 55.60548 23234 ft 422 kts 46°
2026-04-23 16:46 24.15869 55.62937 22735 ft 420 kts 46°
2026-04-23 16:46 24.17793 55.65286 22254 ft 419 kts 46°
2026-04-23 16:46 24.19756 55.67684 21758 ft 417 kts 46°
2026-04-23 16:46 24.21680 55.70038 21374 ft 412 kts 46°
2026-04-23 16:47 24.23579 55.72363 20993 ft 408 kts 46°
2026-04-23 16:47 24.25462 55.74667 20613 ft 403 kts 46°
2026-04-23 16:47 24.27302 55.76917 20244 ft 398 kts 46°
2026-04-23 16:47 24.29109 55.79133 19819 ft 382 kts 46°
2026-04-23 16:48 24.30850 55.81270 19424 ft 370 kts 46°
2026-04-23 16:48 24.32552 55.83352 19036 ft 366 kts 46°
2026-04-23 16:48 24.34252 55.85433 18684 ft 367 kts 46°
2026-04-23 16:48 24.35955 55.87521 18322 ft 368 kts 46°
2026-04-23 16:49 24.37089 55.88905 18084 ft 368 kts 45°
2026-04-23 16:49 24.39542 55.91501 17588 ft 366 kts 40°
2026-04-23 16:49 24.41426 55.93366 17219 ft 363 kts 39°
2026-04-23 16:49 24.43299 55.95215 16839 ft 361 kts 40°
2026-04-23 16:50 24.45154 55.97055 16464 ft 358 kts 40°
2026-04-23 16:50 24.47035 55.98820 16065 ft 352 kts 32°
2026-04-23 16:50 24.49193 55.99998 15685 ft 344 kts 14°
2026-04-23 16:50 24.51516 56.00475 15312 ft 336 kts
2026-04-23 16:51 24.53835 56.00764 14948 ft 335 kts
2026-04-23 16:51 24.56140 56.01072 14578 ft 333 kts
2026-04-23 16:51 24.58438 56.01385 14201 ft 333 kts
2026-04-23 16:51 24.60730 56.01699 13823 ft 331 kts
2026-04-23 16:52 24.63014 56.02014 13457 ft 330 kts
2026-04-23 16:52 24.65290 56.02329 13073 ft 327 kts
2026-04-23 16:52 24.67506 56.02638 12670 ft 316 kts
2026-04-23 16:52 24.69689 56.02941 12303 ft 316 kts
2026-04-23 16:53 24.71872 56.03244 11935 ft 317 kts
2026-04-23 16:53 24.74060 56.03549 11571 ft 316 kts
2026-04-23 16:53 24.76243 56.03853 11199 ft 316 kts
2026-04-23 16:53 24.78424 56.04157 10826 ft 315 kts
2026-04-23 16:54 24.80593 56.04460 10450 ft 314 kts
2026-04-23 16:54 24.82757 56.04760 10101 ft 312 kts
2026-04-23 16:54 24.84879 56.05060 10033 ft 304 kts
2026-04-23 16:54 24.86996 56.05339 10030 ft 305 kts
2026-04-23 16:55 24.89044 56.04943 10037 ft 300 kts 331°
2026-04-23 16:55 24.90607 56.03468 9954 ft 298 kts 301°
2026-04-23 16:55 24.91529 56.01456 9766 ft 292 kts 295°
2026-04-23 16:55 24.92456 55.99483 9585 ft 287 kts 297°
2026-04-23 16:56 24.93407 55.97572 9343 ft 283 kts 298°
2026-04-23 16:56 24.94354 55.95677 9034 ft 281 kts 298°
2026-04-23 16:56 24.95294 55.93794 8729 ft 279 kts 298°
2026-04-23 16:56 24.96225 55.91921 8392 ft 279 kts 298°
2026-04-23 16:57 24.97154 55.90046 8037 ft 278 kts 298°
2026-04-23 16:57 24.98077 55.88179 7715 ft 277 kts 298°
2026-04-23 16:57 24.98997 55.86317 7383 ft 276 kts 298°
2026-04-23 16:57 24.99913 55.84465 7084 ft 274 kts 298°
2026-04-23 16:58 25.00822 55.82621 6760 ft 273 kts 298°
2026-04-23 16:58 25.01729 55.80783 6430 ft 272 kts 298°
2026-04-23 16:58 25.02633 55.78951 6118 ft 271 kts 298°
2026-04-23 16:58 25.03535 55.77129 5821 ft 270 kts 298°
2026-04-23 16:59 25.04427 55.75313 5537 ft 269 kts 298°
2026-04-23 16:59 25.05316 55.73509 5284 ft 266 kts 298°
2026-04-23 16:59 25.06177 55.71753 5240 ft 253 kts 299°
2026-04-23 16:59 25.06993 55.70091 5204 ft 239 kts 297°
2026-04-23 17:00 25.07697 55.68493 5162 ft 224 kts 297°
2026-04-23 17:00 25.08409 55.67015 5134 ft 218 kts 300°
2026-04-23 17:00 25.09175 55.65557 5152 ft 219 kts 301°
2026-04-23 17:00 25.09953 55.64130 5069 ft 218 kts 302°
2026-04-23 17:01 25.10751 55.62690 4774 ft 221 kts 302°
2026-04-23 17:01 25.11546 55.61257 4491 ft 217 kts 302°
2026-04-23 17:01 25.12323 55.59852 4194 ft 211 kts 302°
2026-04-23 17:01 25.13076 55.58488 3922 ft 205 kts 302°
2026-04-23 17:02 25.13562 55.57611 3807 ft 201 kts 302°
2026-04-23 17:02 25.14502 55.55913 3414 ft 185 kts 302°
2026-04-23 17:02 25.15150 55.54746 3156 ft 175 kts 303°
2026-04-23 17:02 25.15777 55.53616 2926 ft 168 kts 303°
2026-04-23 17:03 25.16363 55.52558 2715 ft 158 kts 302°
2026-04-23 17:03 25.16930 55.51532 2549 ft 156 kts 302°
2026-04-23 17:03 25.17505 55.50493 2318 ft 159 kts 302°
2026-04-23 17:03 25.18079 55.49457 2104 ft 157 kts 302°
2026-04-23 17:04 25.18642 55.48444 1885 ft 156 kts 302°
2026-04-23 17:04 25.19206 55.47424 1692 ft 156 kts 302°
2026-04-23 17:04 25.19779 55.46387 1471 ft 157 kts 302°
2026-04-23 17:04 25.20347 55.45359 1277 ft 157 kts 301°
2026-04-23 17:05 25.20906 55.44352 1077 ft 155 kts 302°
2026-04-23 17:05 25.21448 55.43372 849 ft 145 kts 303°
2026-04-23 17:05 25.21802 55.42734 733 ft 144 kts 303°
2026-04-23 17:05 25.22489 55.41487 481 ft 143 kts 302°
2026-04-23 17:06 25.23009 55.40547 299 ft 144 kts 302°
2026-04-23 17:06 25.23533 55.39602 107 ft 145 kts 302°
2026-04-23 17:06 25.23886 55.38969 28 ft 137 kts 303°
2026-04-23 17:06 25.24416 55.37999 27 ft 83 kts 302°
2026-04-23 17:07 25.24631 55.37619 27 ft 34 kts 302°
2026-04-23 17:07 25.24709 55.37472 27 ft 32 kts 300°
2026-04-23 17:07 25.24778 55.37252 27 ft 30 kts 278°
2026-04-23 17:07 25.24785 55.37110 27 ft 11 kts 271°
2026-04-23 17:08 25.24786 55.37091 27 ft 0 kts 271°
2026-04-23 17:09 25.24786 55.37066 27 ft 13 kts 271°
2026-04-23 17:09 25.24806 55.36937 27 ft 18 kts 295°
2026-04-23 17:09 25.24857 55.36814 27 ft 18 kts 282°
2026-04-23 17:10 25.24888 55.36682 27 ft 18 kts 293°
2026-04-23 17:10 25.24948 55.36565 27 ft 18 kts 302°
2026-04-23 17:10 25.25014 55.36450 27 ft 18 kts 302°
2026-04-23 17:10 25.25079 55.36333 27 ft 18 kts 302°
2026-04-23 17:11 25.25103 55.36246 27 ft 12 kts 241°
2026-04-23 17:11 25.25035 55.36195 27 ft 12 kts 211°
2026-04-23 17:11 25.24985 55.36161 27 ft 4 kts 212°
2026-04-23 17:11 25.24972 55.36153 27 ft 1 kts 211°
2026-04-23 17:12 25.24968 55.36149 27 ft 1 kts 211°
2026-04-23 17:12 25.24965 55.36147 27 ft 0 kts 211°